TimeAKDT,TemperatureF,Dew PointF,Humidity,Sea Level PressureIn,VisibilityMPH,Wind Direction,Wind SpeedMPH,Gust SpeedMPH,PrecipitationIn,Events,Conditions,WindDirDegrees,DateUTC
12:16 AM,44.6,39.2,81,29.48,10.0,Calm,Calm,-,N/A,,Clear,0,2013-09-17 08:16:00
12:36 AM,44.6,37.4,76,29.48,10.0,East,3.5,-,N/A,,Clear,80,2013-09-17 08:36:00
12:56 AM,42.8,37.4,81,29.47,10.0,ESE,4.6,-,N/A,,Scattered Clouds,110,2013-09-17 08:56:00
1:16 AM,42.8,37.4,81,29.47,10.0,East,4.6,-,N/A,,Scattered Clouds,100,2013-09-17 09:16:00
1:36 AM,41.0,35.6,81,29.47,10.0,East,4.6,-,N/A,,Clear,100,2013-09-17 09:36:00
1:56 AM,41.0,37.4,87,29.47,10.0,Calm,Calm,-,N/A,,Mostly Cloudy,0,2013-09-17 09:56:00
2:16 AM,42.8,39.2,87,29.47,10.0,Calm,Calm,-,N/A,,Overcast,0,2013-09-17 10:16:00
2:36 AM,41.0,37.4,87,29.47,10.0,Calm,Calm,-,N/A,,Overcast,0,2013-09-17 10:36:00
2:56 AM,39.2,35.6,87,29.47,10.0,Calm,Calm,-,N/A,,Overcast,0,2013-09-17 10:56:00
3:16 AM,41.0,37.4,87,29.47,10.0,ENE,3.5,-,N/A,,Overcast,70,2013-09-17 11:16:00
3:36 AM,41.0,37.4,87,29.47,10.0,East,3.5,-,N/A,,Overcast,100,2013-09-17 11:36:00
3:56 AM,41.0,37.4,87,29.47,10.0,Calm,Calm,-,N/A,,Overcast,0,2013-09-17 11:56:00
4:16 AM,42.8,37.4,81,29.46,10.0,ENE,3.5,-,N/A,,Overcast,60,2013-09-17 12:16:00
4:36 AM,42.8,37.4,81,29.47,10.0,East,3.5,-,N/A,,Overcast,100,2013-09-17 12:36:00
4:56 AM,42.8,37.4,81,29.47,10.0,Calm,Calm,-,N/A,,Overcast,0,2013-09-17 12:56:00
5:16 AM,41.0,37.4,87,29.47,10.0,Calm,Calm,-,N/A,,Overcast,0,2013-09-17 13:16:00
5:36 AM,42.8,37.4,81,29.46,10.0,Calm,Calm,-,N/A,,Overcast,0,2013-09-17 13:36:00
5:56 AM,42.8,37.4,81,29.46,10.0,Calm,Calm,-,N/A,,Overcast,0,2013-09-17 13:56:00
6:16 AM,42.8,37.4,81,29.46,10.0,Calm,Calm,-,N/A,,Overcast,0,2013-09-17 14:16:00
6:36 AM,42.8,37.4,81,29.46,10.0,Calm,Calm,-,N/A,,Overcast,0,2013-09-17 14:36:00
6:56 AM,41.0,35.6,81,29.46,10.0,Calm,Calm,-,N/A,,Overcast,0,2013-09-17 14:56:00
7:16 AM,42.8,37.4,81,29.46,10.0,Calm,Calm,-,N/A,,Overcast,0,2013-09-17 15:16:00
7:36 AM,42.8,37.4,81,29.46,10.0,East,3.5,-,N/A,,Overcast,100,2013-09-17 15:36:00
7:56 AM,42.8,37.4,81,29.46,10.0,East,3.5,-,N/A,,Overcast,100,2013-09-17 15:56:00
8:16 AM,42.8,37.4,81,29.46,10.0,Calm,Calm,-,N/A,,Overcast,0,2013-09-17 16:16:00
8:36 AM,42.8,37.4,81,29.46,10.0,East,3.5,-,N/A,,Overcast,80,2013-09-17 16:36:00
8:56 AM,42.8,37.4,81,29.46,10.0,East,3.5,-,N/A,,Overcast,100,2013-09-17 16:56:00
9:16 AM,42.8,37.4,81,29.46,10.0,Calm,Calm,-,N/A,,Overcast,0,2013-09-17 17:16:00
9:36 AM,42.8,39.2,87,29.46,10.0,Calm,Calm,-,N/A,,Overcast,0,2013-09-17 17:36:00
9:56 AM,42.8,39.2,87,29.46,10.0,Calm,Calm,-,N/A,,Overcast,0,2013-09-17 17:56:00
10:16 AM,44.6,39.2,81,29.46,10.0,Calm,Calm,-,N/A,,Overcast,0,2013-09-17 18:16:00
10:36 AM,44.6,39.2,81,29.46,10.0,Calm,Calm,-,N/A,,Overcast,0,2013-09-17 18:36:00
10:56 AM,44.6,41.0,87,29.46,10.0,Calm,Calm,-,N/A,,Overcast,0,2013-09-17 18:56:00
11:16 AM,46.4,41.0,81,29.46,10.0,Calm,Calm,-,N/A,,Overcast,0,2013-09-17 19:16:00
11:36 AM,46.4,41.0,81,29.46,10.0,ESE,3.5,-,N/A,,Overcast,120,2013-09-17 19:36:00
11:56 AM,46.4,41.0,81,29.46,10.0,Calm,Calm,-,N/A,,Overcast,0,2013-09-17 19:56:00
12:16 PM,46.4,42.8,87,29.47,10.0,Calm,Calm,-,N/A,,Overcast,0,2013-09-17 20:16:00
12:36 PM,48.2,42.8,82,29.46,10.0,Calm,Calm,-,N/A,,Mostly Cloudy,0,2013-09-17 20:36:00
12:56 PM,48.2,41.0,76,29.47,10.0,Calm,Calm,-,N/A,,Overcast,0,2013-09-17 20:56:00
1:16 PM,50.0,42.8,76,29.47,10.0,Calm,Calm,-,N/A,,Overcast,0,2013-09-17 21:16:00
1:36 PM,48.2,42.8,82,29.46,10.0,Calm,Calm,-,N/A,,Overcast,0,2013-09-17 21:36:00
1:56 PM,50.0,42.8,76,29.46,10.0,Calm,Calm,-,N/A,,Overcast,0,2013-09-17 21:56:00
2:16 PM,51.8,42.8,71,29.46,10.0,Calm,Calm,-,N/A,,Overcast,0,2013-09-17 22:16:00
2:36 PM,51.8,42.8,71,29.46,10.0,Calm,Calm,-,N/A,,Mostly Cloudy,0,2013-09-17 22:36:00
2:56 PM,51.8,42.8,71,29.46,10.0,Calm,Calm,-,N/A,,Mostly Cloudy,0,2013-09-17 22:56:00
3:16 PM,53.6,42.8,67,29.45,10.0,Calm,Calm,-,N/A,,Mostly Cloudy,0,2013-09-17 23:16:00
3:36 PM,53.6,42.8,67,29.45,10.0,West,4.6,-,N/A,,Overcast,280,2013-09-17 23:36:00
3:56 PM,53.6,42.8,67,29.45,10.0,WNW,4.6,-,N/A,,Mostly Cloudy,300,2013-09-17 23:56:00
4:16 PM,53.6,42.8,67,29.45,10.0,NW,8.1,-,N/A,,Overcast,320,2013-09-18 00:16:00
4:36 PM,53.6,44.6,72,29.45,10.0,WNW,6.9,-,N/A,,Overcast,300,2013-09-18 00:36:00
4:56 PM,53.6,42.8,67,29.45,10.0,WNW,4.6,-,N/A,,Overcast,300,2013-09-18 00:56:00
5:16 PM,53.6,42.8,67,29.45,10.0,West,4.6,-,N/A,,Overcast,280,2013-09-18 01:16:00
5:36 PM,53.6,44.6,72,29.46,10.0,NNW,4.6,-,N/A,,Overcast,340,2013-09-18 01:36:00
5:56 PM,53.6,44.6,72,29.46,10.0,NW,5.8,-,N/A,,Overcast,310,2013-09-18 01:56:00
6:16 PM,53.6,42.8,67,29.46,10.0,WNW,5.8,-,N/A,,Overcast,300,2013-09-18 02:16:00
6:36 PM,53.6,42.8,67,29.46,10.0,NE,6.9,-,N/A,,Overcast,40,2013-09-18 02:36:00
6:56 PM,50.0,44.6,82,29.47,9.0,Calm,Calm,-,N/A,,Mostly Cloudy,0,2013-09-18 02:56:00
7:16 PM,48.2,42.8,82,29.47,10.0,Calm,Calm,-,N/A,,Overcast,0,2013-09-18 03:16:00
7:36 PM,48.2,44.6,87,29.47,10.0,Calm,Calm,-,N/A,,Overcast,0,2013-09-18 03:36:00
7:56 PM,48.2,44.6,87,29.48,10.0,Calm,Calm,-,N/A,,Overcast,0,2013-09-18 03:56:00
8:16 PM,48.2,44.6,87,29.49,10.0,Calm,Calm,-,N/A,,Overcast,0,2013-09-18 04:16:00
8:36 PM,48.2,44.6,87,29.49,10.0,Calm,Calm,-,N/A,,Overcast,0,2013-09-18 04:36:00
8:56 PM,48.2,44.6,87,29.49,10.0,Calm,Calm,-,N/A,,Overcast,0,2013-09-18 04:56:00
9:16 PM,48.2,44.6,87,29.50,10.0,Calm,Calm,-,N/A,,Overcast,0,2013-09-18 05:16:00
9:36 PM,46.4,44.6,93,29.50,10.0,Calm,Calm,-,N/A,,Overcast,0,2013-09-18 05:36:00
9:56 PM,46.4,42.8,87,29.51,10.0,Calm,Calm,-,N/A,,Overcast,0,2013-09-18 05:56:00
10:16 PM,44.6,42.8,93,29.51,10.0,Calm,Calm,-,N/A,,Mostly Cloudy,0,2013-09-18 06:16:00
10:36 PM,44.6,41.0,87,29.51,5.0,Calm,Calm,-,N/A,,Partly Cloudy,0,2013-09-18 06:36:00
10:56 PM,42.8,39.2,87,29.52,1.0,Calm,Calm,-,N/A,,Overcast,0,2013-09-18 06:56:00
11:16 PM,42.8,39.2,87,29.52,0.5,Calm,Calm,-,N/A,,Overcast,0,2013-09-18 07:16:00
11:36 PM,42.8,39.2,87,29.52,10.0,Calm,Calm,-,N/A,,Overcast,0,2013-09-18 07:36:00
11:56 PM,42.8,39.2,87,29.52,10.0,Calm,Calm,-,N/A,,Overcast,0,2013-09-18 07:56:00